This is the latest recevied weather packets stored in our database for station/object KA1BMF-13. If no packets are shown the sender has not sent any weather packets the latest 10 day(s).
| Time | Temp. | Humidity | Pressure | Rain* | Wind** | Luminosity | Snow |
|---|---|---|---|---|---|---|---|
| 1787862319 | 23.89° C | 80% | 1016.4 hPa | 0 mm | - | 167 W/m² | - |
| 1787861716 | 23.89° C | 81% | 1016.4 hPa | 0 mm | - | 223 W/m² | - |
| 1787861119 | 23.89° C | 82% | 1016.3 hPa | 0 mm | - | 192 W/m² | - |
| 1787860519 | 24.44° C | 81% | 1016.3 hPa | 0 mm | - | 162 W/m² | - |
| 1787859919 | 24.44° C | 80% | 1016.4 hPa | 0 mm | - | 171 W/m² | - |
| 1787859316 | 24.44° C | 79% | 1016.5 hPa | 0 mm | - | 197 W/m² | - |
| 1787858717 | 24.44° C | 78% | 1016.6 hPa | 0 mm | - | 237 W/m² | - |
| 1787858117 | 24.44° C | 77% | 1016.6 hPa | 0 mm | - | 168 W/m² | - |
| 1787857520 | 24.44° C | 76% | 1016.7 hPa | 0 mm | - | 162 W/m² | - |
| 1787856917 | 24.44° C | 77% | 1016.6 hPa | 0 mm | - | 111 W/m² | - |
| 1787856317 | 24.44° C | 76% | 1016.6 hPa | 0 mm | - | 104 W/m² | - |
| 1787855717 | 24.44° C | 75% | 1016.4 hPa | 0 mm | - | 130 W/m² | - |
| 1787855117 | 24.44° C | 73% | 1016.5 hPa | 0 mm | - | 162 W/m² | - |
| 1787854518 | 25° C | 73% | 1016.6 hPa | 0 mm | - | 182 W/m² | - |
| 1787853918 | 25° C | 72% | 1016.6 hPa | 0 mm | - | 186 W/m² | - |
| 1787853318 | 25° C | 72% | 1016.5 hPa | 0 mm | - | 244 W/m² | - |
| 1787852718 | 25.56° C | 73% | 1016.3 hPa | 0 mm | - | 298 W/m² | - |
| 1787852118 | 25.56° C | 75% | 1016.4 hPa | 0 mm | - | 291 W/m² | - |
| 1787851516 | 25° C | 75% | 1016.2 hPa | 0 mm | - | 307 W/m² | - |
| 1787850919 | 25° C | 76% | 1016.1 hPa | 0 mm | - | 212 W/m² | - |
| 1787850319 | 25° C | 76% | 1016.4 hPa | 0 mm | - | 206 W/m² | - |
| 1787849719 | 25.56° C | 77% | 1016.9 hPa | 0 mm | - | 265 W/m² | - |
| 1787849116 | 25.56° C | 77% | 1017 hPa | 0 mm | - | 298 W/m² | - |
| 1787848516 | 25.56° C | 77% | 1016.8 hPa | 0 mm | - | 342 W/m² | - |
| 1787847917 | 25° C | 79% | 1017 hPa | 0 mm | - | 517 W/m² | - |
* Rain latest hour (hover to see other rain measurements)
** Current wind speed in m/s (hover to see current wind gust speed)